User: anonymous   Login
Location: Unspecified
(0.0000°N, 0.0000°E)
Time: 03:53:43
(UTC+00:00)
Language:

DIAMOND GREEN - Orbit

View from above orbital plane
View from above orbital plane
View from above satellite
View from above satellite

Ground track
Ground track

The orbit data is extracted from the following two-line orbital elements,

1 42785U 17036W   17230.20601365  .00000932  00000-0  45533-4 0  9997
2 42785  97.4453 289.3082 0014059  61.9265 298.3390 15.20646906  8449
Epoch (UTC): 18 August 2017 04:56:39
Eccentricity: 0.0014059
inclination: 97.4453°
perigee height: 494 km
apogee height: 513 km
right ascension of ascending node: 289.3082°
argument of perigee: 61.9265°
revolutions per day: 15.20646906
mean anomaly at epoch: 298.3390°
orbit number at epoch: 844

The dashed part of the orbit path shows where the satellite is in the earth's shadow,  

DLR